TimeEST,TemperatureF,Dew PointF,Humidity,Sea Level PressureIn,VisibilityMPH,Wind Direction,Wind SpeedMPH,Gust SpeedMPH,PrecipitationIn,Events,Conditions,WindDirDegrees,DateUTC
12:53 AM,30.0,25.0,82,30.00,10.0,Calm,Calm,-,N/A,,Clear,0,2013-02-15 05:53:00
1:53 AM,28.0,24.1,85,30.00,10.0,Calm,Calm,-,N/A,,Scattered Clouds,0,2013-02-15 06:53:00
2:53 AM,30.0,24.1,79,30.02,10.0,Calm,Calm,-,N/A,,Scattered Clouds,0,2013-02-15 07:53:00
3:53 AM,28.9,24.1,82,30.03,10.0,Calm,Calm,-,N/A,,Scattered Clouds,0,2013-02-15 08:53:00
4:53 AM,30.0,25.0,82,30.03,10.0,West,3.5,-,N/A,,Mostly Cloudy,260,2013-02-15 09:53:00
5:53 AM,32.0,26.1,79,30.05,10.0,WSW,3.5,-,N/A,,Overcast,250,2013-02-15 10:53:00
6:53 AM,32.0,26.1,79,30.06,10.0,WSW,3.5,-,N/A,,Mostly Cloudy,250,2013-02-15 11:53:00
7:53 AM,32.0,26.1,79,30.08,10.0,West,4.6,-,N/A,,Overcast,260,2013-02-15 12:53:00
8:43 AM,33.8,26.6,75,30.08,9.0,West,5.8,-,N/A,,Overcast,260,2013-02-15 13:43:00
8:53 AM,33.1,27.0,78,30.10,9.0,West,5.8,-,N/A,,Overcast,270,2013-02-15 13:53:00
9:53 AM,34.0,28.0,79,30.12,7.0,WNW,8.1,-,N/A,,Overcast,290,2013-02-15 14:53:00
10:38 AM,35.6,28.4,75,30.10,9.0,NW,8.1,-,N/A,,Overcast,310,2013-02-15 15:38:00
10:53 AM,35.1,26.1,70,30.12,9.0,WNW,8.1,-,N/A,,Overcast,300,2013-02-15 15:53:00
11:22 AM,37.4,26.6,65,30.10,10.0,WNW,8.1,-,0.00,,Overcast,290,2013-02-15 16:22:00
11:53 AM,35.1,25.0,67,30.13,10.0,WNW,11.5,-,0.00,,Overcast,290,2013-02-15 16:53:00
12:26 PM,35.6,24.8,65,30.11,10.0,WNW,8.1,-,N/A,,Mostly Cloudy,300,2013-02-15 17:26:00
12:53 PM,37.9,23.0,55,30.13,10.0,NW,10.4,19.6,N/A,,Mostly Cloudy,310,2013-02-15 17:53:00
1:53 PM,36.0,19.9,52,30.12,10.0,NW,11.5,20.7,N/A,,Overcast,310,2013-02-15 18:53:00
2:53 PM,36.0,18.0,48,30.12,10.0,NW,10.4,19.6,N/A,,Mostly Cloudy,310,2013-02-15 19:53:00
3:53 PM,36.0,19.9,52,30.14,10.0,NW,9.2,18.4,N/A,,Overcast,320,2013-02-15 20:53:00
4:53 PM,34.0,19.9,56,30.16,10.0,WNW,9.2,-,0.00,,Overcast,300,2013-02-15 21:53:00
5:53 PM,33.1,17.1,52,30.17,10.0,NW,6.9,-,N/A,,Clear,310,2013-02-15 22:53:00
6:53 PM,30.9,15.1,52,30.18,10.0,WNW,8.1,-,N/A,,Clear,290,2013-02-15 23:53:00
7:53 PM,28.9,14.0,54,30.19,10.0,WNW,4.6,-,N/A,,Clear,290,2013-02-16 00:53:00
8:53 PM,28.0,12.9,53,30.19,10.0,NW,3.5,-,N/A,,Clear,310,2013-02-16 01:53:00
9:53 PM,27.0,14.0,58,30.19,10.0,Calm,Calm,-,N/A,,Clear,0,2013-02-16 02:53:00
10:53 PM,23.0,14.0,68,30.19,10.0,Calm,Calm,-,N/A,,Clear,0,2013-02-16 03:53:00
11:53 PM,21.9,16.0,78,30.17,9.0,Calm,Calm,-,N/A,,Clear,0,2013-02-16 04:53:00